Time,TemperatureF,DewpointF,PressureIn,WindDirection,WindDirectionDegrees,WindSpeedMPH,WindSpeedGustMPH,Humidity,HourlyPrecipIn,Conditions,Clouds,dailyrainin,SoftwareType,DateUTC
2013-01-30 00:02:00,71.5,65.0,30.06,East,89,1.0,6.0,80,0.00,,---,0.00,VWS V14.01,2013-01-30 05:02:00,
2013-01-30 00:05:00,71.5,65.0,30.06,East,90,2.0,3.0,80,0.00,,---,0.00,VWS V14.01,2013-01-30 05:05:00,
2013-01-30 00:08:00,71.3,64.8,30.06,ESE,109,2.0,6.0,80,0.00,,---,0.00,VWS V14.01,2013-01-30 05:08:00,
2013-01-30 00:13:00,71.5,65.0,30.06,ESE,105,5.0,7.0,80,0.00,,---,0.00,VWS V14.01,2013-01-30 05:13:00,
2013-01-30 00:18:00,71.6,64.8,30.05,ESE,105,2.0,7.0,79,0.00,,---,0.00,VWS V14.01,2013-01-30 05:18:00,
2013-01-30 00:23:00,71.6,64.8,30.05,ESE,106,1.0,7.0,79,0.00,,---,0.00,VWS V14.01,2013-01-30 05:23:00,
2013-01-30 00:28:00,71.6,64.8,30.05,ESE,107,1.0,7.0,79,0.00,,---,0.00,VWS V14.01,2013-01-30 05:28:00,
2013-01-30 00:33:00,71.5,65.0,30.05,ESE,108,2.0,5.0,80,0.00,,---,0.00,VWS V14.01,2013-01-30 05:33:00,
2013-01-30 00:38:00,71.5,65.0,30.05,ESE,109,3.0,5.0,80,0.00,,---,0.00,VWS V14.01,2013-01-30 05:38:00,
2013-01-30 00:43:00,71.5,65.4,30.05,ESE,107,4.0,6.0,81,0.00,,---,0.00,VWS V14.01,2013-01-30 05:43:00,
2013-01-30 00:48:00,71.5,65.0,30.04,East,94,4.0,6.0,80,0.00,,---,0.00,VWS V14.01,2013-01-30 05:48:00,
2013-01-30 00:53:00,71.5,65.0,30.04,ESE,107,2.0,6.0,80,0.00,,---,0.00,VWS V14.01,2013-01-30 05:53:00,
2013-01-30 00:58:00,71.5,65.0,30.04,ESE,123,4.0,6.0,80,0.00,,---,0.00,VWS V14.01,2013-01-30 05:58:00,
2013-01-30 01:03:00,71.5,65.0,30.03,SE,124,4.0,4.0,80,0.00,,---,0.00,VWS V14.01,2013-01-30 06:03:00,
2013-01-30 01:09:00,71.5,65.0,30.03,ESE,109,1.0,6.0,80,0.00,,---,0.00,VWS V14.01,2013-01-30 06:09:00,
2013-01-30 01:14:00,71.5,65.4,30.03,ESE,104,2.0,6.0,81,0.00,,---,0.00,VWS V14.01,2013-01-30 06:14:00,
2013-01-30 01:19:00,71.6,65.5,30.04,ESE,111,2.0,6.0,81,0.00,,---,0.00,VWS V14.01,2013-01-30 06:19:00,
2013-01-30 01:24:00,71.5,65.7,30.04,ESE,112,1.0,6.0,82,0.00,,---,0.00,VWS V14.01,2013-01-30 06:24:00,
2013-01-30 01:29:00,71.3,65.9,30.04,ESE,112,2.0,6.0,83,0.00,,---,0.00,VWS V14.01,2013-01-30 06:29:00,
2013-01-30 01:34:00,71.3,65.9,30.04,ESE,113,0.0,2.0,83,0.00,,---,0.00,VWS V14.01,2013-01-30 06:34:00,
2013-01-30 01:39:00,71.1,65.7,30.04,ESE,115,4.0,5.0,83,0.00,,---,0.00,VWS V14.01,2013-01-30 06:39:00,
2013-01-30 01:44:00,71.3,65.9,30.04,ESE,115,1.0,5.0,83,0.00,,---,0.00,VWS V14.01,2013-01-30 06:44:00,
2013-01-30 01:49:00,71.5,66.1,30.04,SE,134,1.0,5.0,83,0.00,,---,0.00,VWS V14.01,2013-01-30 06:49:00,
2013-01-30 01:54:00,71.5,66.1,30.04,SE,126,0.0,5.0,83,0.00,,---,0.00,VWS V14.01,2013-01-30 06:54:00,
2013-01-30 01:59:00,71.5,66.1,30.04,SE,127,0.0,5.0,83,0.00,,---,0.00,VWS V14.01,2013-01-30 06:59:00,
2013-01-30 02:04:00,71.5,66.1,30.04,ESE,116,2.0,3.0,83,0.00,,---,0.00,VWS V14.01,2013-01-30 07:04:00,
2013-01-30 02:09:00,71.5,66.1,30.04,ESE,122,4.0,6.0,83,0.00,,---,0.00,VWS V14.01,2013-01-30 07:09:00,
2013-01-30 02:14:00,71.6,66.2,30.04,ESE,123,2.0,6.0,83,0.00,,---,0.00,VWS V14.01,2013-01-30 07:14:00,
2013-01-30 02:19:00,71.6,66.2,30.04,SE,124,3.0,6.0,83,0.00,,---,0.00,VWS V14.01,2013-01-30 07:19:00,
2013-01-30 02:25:00,71.6,66.2,30.04,SE,125,0.0,6.0,83,0.00,,---,0.00,VWS V14.01,2013-01-30 07:25:00,
2013-01-30 02:30:00,71.6,66.2,30.04,SE,125,4.0,6.0,83,0.00,,---,0.00,VWS V14.01,2013-01-30 07:30:00,
2013-01-30 02:35:00,71.5,66.1,30.03,SE,125,0.0,2.0,83,0.00,,---,0.00,VWS V14.01,2013-01-30 07:35:00,
2013-01-30 02:40:00,71.3,65.9,30.03,SE,126,0.0,2.0,83,0.00,,---,0.00,VWS V14.01,2013-01-30 07:40:00,
2013-01-30 02:45:00,71.1,66.0,30.03,SE,126,3.0,3.0,84,0.00,,---,0.00,VWS V14.01,2013-01-30 07:45:00,
2013-01-30 02:50:00,70.9,65.8,30.03,SE,126,1.0,5.0,84,0.00,,---,0.00,VWS V14.01,2013-01-30 07:50:00,
2013-01-30 02:55:00,70.9,66.2,30.03,SE,126,0.0,5.0,85,0.00,,---,0.00,VWS V14.01,2013-01-30 07:55:00,
2013-01-30 03:00:00,70.9,65.8,30.03,SE,126,0.0,5.0,84,0.00,,---,0.00,VWS V14.01,2013-01-30 08:00:00,
2013-01-30 03:05:00,70.9,65.8,30.03,SE,126,0.0,3.0,84,0.00,,---,0.00,VWS V14.01,2013-01-30 08:05:00,
2013-01-30 03:10:00,70.8,66.1,30.03,SE,126,3.0,3.0,85,0.00,,---,0.00,VWS V14.01,2013-01-30 08:10:00,
2013-01-30 03:15:00,70.9,66.2,30.03,SE,126,5.0,6.0,85,0.00,,---,0.00,VWS V14.01,2013-01-30 08:15:00,
2013-01-30 03:20:00,70.9,66.2,30.03,ESE,123,2.0,6.0,85,0.00,,---,0.00,VWS V14.01,2013-01-30 08:20:00,
2013-01-30 03:25:00,71.1,66.4,30.03,SE,124,0.0,6.0,85,0.00,,---,0.00,VWS V14.01,2013-01-30 08:25:00,
2013-01-30 03:30:00,71.1,66.4,30.03,SE,125,0.0,6.0,85,0.00,,---,0.00,VWS V14.01,2013-01-30 08:30:00,
2013-01-30 03:35:00,70.9,66.2,30.03,SE,124,3.0,4.0,85,0.00,,---,0.00,VWS V14.01,2013-01-30 08:35:00,
2013-01-30 03:40:00,70.8,66.1,30.03,SE,125,3.0,4.0,85,0.00,,---,0.00,VWS V14.01,2013-01-30 08:40:00,
2013-01-30 03:46:00,70.9,66.2,30.03,SE,125,0.0,4.0,85,0.00,,---,0.00,VWS V14.01,2013-01-30 08:46:00,
2013-01-30 03:51:00,71.1,66.4,30.03,SE,125,0.0,4.0,85,0.00,,---,0.00,VWS V14.01,2013-01-30 08:51:00,
2013-01-30 03:56:00,71.1,66.4,30.03,SE,125,3.0,4.0,85,0.00,,---,0.00,VWS V14.01,2013-01-30 08:56:00,
2013-01-30 04:01:00,70.9,66.2,30.02,SE,125,0.0,4.0,85,0.00,,---,0.00,VWS V14.01,2013-01-30 09:01:00,
2013-01-30 04:06:00,70.9,66.2,30.02,SE,125,3.0,3.0,85,0.00,,---,0.00,VWS V14.01,2013-01-30 09:06:00,
2013-01-30 04:11:00,70.8,66.1,30.02,SE,126,2.0,5.0,85,0.00,,---,0.00,VWS V14.01,2013-01-30 09:11:00,
2013-01-30 04:16:00,70.8,66.1,30.02,SE,126,2.0,5.0,85,0.00,,---,0.00,VWS V14.01,2013-01-30 09:16:00,
2013-01-30 04:21:00,70.8,66.4,30.02,SE,126,2.0,5.0,86,0.00,,---,0.00,VWS V14.01,2013-01-30 09:21:00,
2013-01-30 04:26:00,70.8,66.4,30.02,SE,126,2.0,5.0,86,0.00,,---,0.00,VWS V14.01,2013-01-30 09:26:00,
2013-01-30 04:31:00,70.8,66.4,30.02,SE,126,0.0,5.0,86,0.00,,---,0.00,VWS V14.01,2013-01-30 09:31:00,
2013-01-30 04:36:00,70.8,66.1,30.02,SE,126,3.0,3.0,85,0.00,,---,0.00,VWS V14.01,2013-01-30 09:36:00,
2013-01-30 04:41:00,70.8,66.1,30.02,SE,126,0.0,3.0,85,0.00,,---,0.00,VWS V14.01,2013-01-30 09:41:00,
2013-01-30 04:46:00,70.8,66.1,30.01,SE,126,1.0,3.0,85,0.00,,---,0.00,VWS V14.01,2013-01-30 09:46:00,
2013-01-30 04:51:00,70.8,66.1,30.01,SE,124,1.0,5.0,85,0.00,,---,0.00,VWS V14.01,2013-01-30 09:51:00,
2013-01-30 04:56:00,70.6,65.9,30.01,SE,124,0.0,5.0,85,0.00,,---,0.00,VWS V14.01,2013-01-30 09:56:00,
2013-01-30 05:02:00,70.6,65.9,30.01,SE,136,3.0,5.0,85,0.00,,---,0.00,VWS V14.01,2013-01-30 10:02:00,
2013-01-30 05:07:00,70.6,65.9,30.01,SE,124,0.0,3.0,85,0.00,,---,0.00,VWS V14.01,2013-01-30 10:07:00,
2013-01-30 05:12:00,70.6,65.9,30.01,SE,126,3.0,4.0,85,0.00,,---,0.00,VWS V14.01,2013-01-30 10:12:00,
2013-01-30 05:17:00,70.6,65.9,30.00,SE,126,0.0,4.0,85,0.00,,---,0.00,VWS V14.01,2013-01-30 10:17:00,
2013-01-30 05:22:00,70.6,65.9,30.00,SE,124,4.0,4.0,85,0.00,,---,0.00,VWS V14.01,2013-01-30 10:22:00,
2013-01-30 05:27:00,70.6,65.9,30.00,SE,125,2.0,4.0,85,0.00,,---,0.00,VWS V14.01,2013-01-30 10:27:00,
2013-01-30 05:32:00,70.6,65.9,30.00,SE,126,1.0,4.0,85,0.00,,---,0.00,VWS V14.01,2013-01-30 10:32:00,
2013-01-30 05:37:00,70.8,65.7,30.00,ESE,107,3.0,5.0,84,0.00,,---,0.00,VWS V14.01,2013-01-30 10:37:00,
2013-01-30 05:42:00,70.9,65.8,30.00,ESE,107,0.0,5.0,84,0.00,,---,0.00,VWS V14.01,2013-01-30 10:42:00,
2013-01-30 05:47:00,70.8,65.7,30.02,ESE,107,1.0,5.0,84,0.00,,---,0.00,VWS V14.01,2013-01-30 10:47:00,
2013-01-30 05:52:00,70.8,65.7,30.02,ESE,107,0.0,5.0,84,0.00,,---,0.00,VWS V14.01,2013-01-30 10:52:00,
2013-01-30 05:57:00,70.4,65.3,30.02,ESE,107,0.0,5.0,84,0.00,,---,0.00,VWS V14.01,2013-01-30 10:57:00,
2013-01-30 06:02:00,70.3,65.6,30.02,ESE,107,0.0,0.0,85,0.00,,---,0.00,VWS V14.01,2013-01-30 11:02:00,
2013-01-30 06:07:00,70.3,65.6,30.02,ESE,107,2.0,2.0,85,0.00,,---,0.00,VWS V14.01,2013-01-30 11:07:00,
2013-01-30 06:12:00,70.1,65.7,30.02,ESE,107,2.0,4.0,86,0.00,,---,0.00,VWS V14.01,2013-01-30 11:12:00,
2013-01-30 06:17:00,69.9,65.9,30.02,ESE,113,3.0,4.0,87,0.00,,---,0.00,VWS V14.01,2013-01-30 11:17:00,
2013-01-30 06:22:00,69.8,65.8,30.02,ESE,113,0.0,4.0,87,0.00,,---,0.00,VWS V14.01,2013-01-30 11:22:00,
2013-01-30 06:28:00,69.4,65.7,30.02,ESE,113,0.0,4.0,88,0.00,,---,0.00,VWS V14.01,2013-01-30 11:28:00,
2013-01-30 06:33:00,69.4,65.7,30.03,ESE,113,0.0,0.0,88,0.00,,---,0.00,VWS V14.01,2013-01-30 11:33:00,
2013-01-30 06:38:00,69.3,65.6,30.03,ESE,113,0.0,2.0,88,0.00,,---,0.00,VWS V14.01,2013-01-30 11:38:00,
2013-01-30 06:43:00,69.1,65.4,30.03,ESE,113,1.0,3.0,88,0.00,,---,0.00,VWS V14.01,2013-01-30 11:43:00,
2013-01-30 06:48:00,69.1,65.7,30.03,ESE,113,1.0,3.0,89,0.00,,---,0.00,VWS V14.01,2013-01-30 11:48:00,
2013-01-30 06:53:00,69.1,65.7,30.03,ESE,113,1.0,4.0,89,0.00,,---,0.00,VWS V14.01,2013-01-30 11:53:00,
2013-01-30 06:58:00,68.9,65.8,30.03,ESE,113,0.0,4.0,90,0.00,,---,0.00,VWS V14.01,2013-01-30 11:58:00,
2013-01-30 07:03:00,68.9,65.8,30.03,ESE,113,1.0,1.0,90,0.00,,---,0.00,VWS V14.01,2013-01-30 12:03:00,
2013-01-30 07:08:00,68.9,65.8,30.03,ESE,113,2.0,2.0,90,0.00,,---,0.00,VWS V14.01,2013-01-30 12:08:00,
2013-01-30 07:13:00,68.9,65.5,30.03,ESE,113,0.0,2.0,89,0.00,,---,0.00,VWS V14.01,2013-01-30 12:13:00,
2013-01-30 07:18:00,69.1,65.7,30.03,ESE,113,2.0,3.0,89,0.00,,---,0.00,VWS V14.01,2013-01-30 12:18:00,
2013-01-30 07:23:00,69.4,65.7,30.03,ESE,113,1.0,3.0,88,0.00,,---,0.00,VWS V14.01,2013-01-30 12:23:00,
2013-01-30 07:28:00,69.6,65.9,30.03,ESE,113,2.0,4.0,88,0.00,,---,0.00,VWS V14.01,2013-01-30 12:28:00,
2013-01-30 07:33:00,69.8,65.8,30.03,ESE,112,1.0,5.0,87,0.00,,---,0.00,VWS V14.01,2013-01-30 12:33:00,
2013-01-30 07:39:00,70.1,66.1,30.03,ESE,113,2.0,5.0,87,0.00,,---,0.00,VWS V14.01,2013-01-30 12:39:00,
2013-01-30 07:44:00,70.4,66.0,30.03,ESE,113,2.0,5.0,86,0.00,,---,0.00,VWS V14.01,2013-01-30 12:44:00,
2013-01-30 07:49:00,70.6,66.2,30.02,ESE,113,0.0,5.0,86,0.00,,---,0.00,VWS V14.01,2013-01-30 12:49:00,
2013-01-30 07:54:00,70.9,66.2,30.02,ESE,113,1.0,5.0,85,0.00,,---,0.00,VWS V14.01,2013-01-30 12:54:00,
2013-01-30 07:59:00,71.3,66.2,30.02,ESE,113,2.0,5.0,84,0.00,,---,0.00,VWS V14.01,2013-01-30 12:59:00,
2013-01-30 08:04:00,71.8,66.4,30.03,ESE,115,2.0,5.0,83,0.00,,---,0.00,VWS V14.01,2013-01-30 13:04:00,
2013-01-30 08:09:00,72.3,66.8,30.03,SE,125,1.0,6.0,83,0.00,,---,0.00,VWS V14.01,2013-01-30 13:09:00,
2013-01-30 08:14:00,72.8,66.6,30.03,SE,140,1.0,7.0,81,0.00,,---,0.00,VWS V14.01,2013-01-30 13:14:00,
2013-01-30 08:19:00,73.3,66.8,30.03,SE,140,0.0,7.0,80,0.00,,---,0.00,VWS V14.01,2013-01-30 13:19:00,
2013-01-30 08:24:00,73.9,66.6,30.03,ESE,121,0.0,7.0,78,0.00,,---,0.00,VWS V14.01,2013-01-30 13:24:00,
2013-01-30 08:29:00,74.2,66.5,30.03,SE,125,0.0,7.0,77,0.00,,---,0.00,VWS V14.01,2013-01-30 13:29:00,
2013-01-30 08:34:00,74.4,66.3,30.03,East,99,3.0,6.0,76,0.00,,---,0.00,VWS V14.01,2013-01-30 13:34:00,
2013-01-30 08:39:00,74.4,66.0,30.03,ESE,123,0.0,6.0,75,0.00,,---,0.00,VWS V14.01,2013-01-30 13:39:00,
2013-01-30 08:44:00,74.7,66.3,30.03,ESE,109,3.0,6.0,75,0.00,,---,0.00,VWS V14.01,2013-01-30 13:44:00,
2013-01-30 08:49:00,75.1,66.2,30.03,ESE,119,3.0,6.0,74,0.00,,---,0.00,VWS V14.01,2013-01-30 13:49:00,
2013-01-30 08:55:00,74.6,65.4,30.03,SE,132,2.0,9.0,73,0.00,,---,0.00,VWS V14.01,2013-01-30 13:55:00,
2013-01-30 09:00:00,74.6,65.4,30.03,SE,130,1.0,10.0,73,0.00,,---,0.00,VWS V14.01,2013-01-30 14:00:00,
2013-01-30 09:05:00,75.1,65.5,30.03,ESE,108,2.0,5.0,72,0.00,,---,0.00,VWS V14.01,2013-01-30 14:05:00,
2013-01-30 09:10:00,76.0,65.5,30.03,SSE,148,0.0,8.0,70,0.00,,---,0.00,VWS V14.01,2013-01-30 14:10:00,
2013-01-30 09:15:00,76.1,65.2,30.03,SSE,157,3.0,8.0,69,0.00,,---,0.00,VWS V14.01,2013-01-30 14:15:00,
2013-01-30 09:20:00,75.8,64.9,30.03,ESE,119,4.0,10.0,69,0.00,,---,0.00,VWS V14.01,2013-01-30 14:20:00,
2013-01-30 09:25:00,75.6,65.1,30.03,ESE,117,3.0,10.0,70,0.00,,---,0.00,VWS V14.01,2013-01-30 14:25:00,
2013-01-30 09:30:00,76.0,65.5,30.03,ESE,123,0.0,10.0,70,0.00,,---,0.00,VWS V14.01,2013-01-30 14:30:00,
2013-01-30 09:35:00,76.5,66.0,30.03,ESE,118,3.0,4.0,70,0.00,,---,0.00,VWS V14.01,2013-01-30 14:35:00,
2013-01-30 09:40:00,77.0,65.2,30.03,SSE,153,0.0,7.0,67,0.00,,---,0.00,VWS V14.01,2013-01-30 14:40:00,
2013-01-30 09:45:00,77.9,65.2,30.03,ESE,113,5.0,11.0,65,0.00,,---,0.00,VWS V14.01,2013-01-30 14:45:00,
2013-01-30 09:50:00,78.6,65.9,30.03,SE,131,1.0,11.0,65,0.00,,---,0.00,VWS V14.01,2013-01-30 14:50:00,
2013-01-30 09:55:00,79.6,65.4,30.03,ESE,113,3.0,11.0,62,0.00,,---,0.00,VWS V14.01,2013-01-30 14:55:00,
2013-01-30 10:00:00,79.6,65.0,30.03,ESE,106,5.0,11.0,61,0.00,,---,0.00,VWS V14.01,2013-01-30 15:00:00,
2013-01-30 10:05:00,78.5,66.2,30.03,ESE,112,4.0,10.0,66,0.00,,---,0.00,VWS V14.01,2013-01-30 15:05:00,
2013-01-30 10:11:00,77.9,65.6,30.03,ESE,123,5.0,17.0,66,0.00,,---,0.00,VWS V14.01,2013-01-30 15:11:00,
2013-01-30 10:16:00,78.6,65.9,30.02,SSE,153,9.0,17.0,65,0.00,,---,0.00,VWS V14.01,2013-01-30 15:16:00,
2013-01-30 10:21:00,79.2,66.4,30.02,SE,138,4.0,17.0,65,0.00,,---,0.00,VWS V14.01,2013-01-30 15:21:00,
2013-01-30 10:26:00,79.0,65.8,30.02,SSE,148,2.0,17.0,64,0.00,,---,0.00,VWS V14.01,2013-01-30 15:26:00,
2013-01-30 10:31:00,79.4,66.6,30.01,SE,132,2.0,17.0,65,0.00,,---,0.00,VWS V14.01,2013-01-30 15:31:00,
2013-01-30 10:36:00,79.8,66.1,30.01,SE,131,3.0,10.0,63,0.00,,---,0.00,VWS V14.01,2013-01-30 15:36:00,
2013-01-30 10:41:00,79.9,65.7,30.01,ESE,120,10.0,14.0,62,0.00,,---,0.00,VWS V14.01,2013-01-30 15:41:00,
2013-01-30 10:46:00,80.3,65.2,30.01,East,101,4.0,15.0,60,0.00,,---,0.00,VWS V14.01,2013-01-30 15:46:00,
2013-01-30 10:51:00,80.7,65.1,30.01,East,95,3.0,15.0,59,0.00,,---,0.00,VWS V14.01,2013-01-30 15:51:00,
2013-01-30 10:56:00,80.3,65.6,30.01,SE,145,7.0,15.0,61,0.00,,---,0.00,VWS V14.01,2013-01-30 15:56:00,
2013-01-30 11:01:00,79.6,65.4,30.00,SE,138,7.0,15.0,62,0.00,,---,0.00,VWS V14.01,2013-01-30 16:01:00,
2013-01-30 11:06:00,80.5,66.3,30.00,SSW,206,10.0,10.0,62,0.00,,---,0.00,VWS V14.01,2013-01-30 16:06:00,
2013-01-30 11:11:00,80.3,66.1,30.00,SSE,153,9.0,10.0,62,0.00,,---,0.00,VWS V14.01,2013-01-30 16:11:00,
2013-01-30 11:16:00,80.3,66.6,30.00,South,181,2.0,10.0,63,0.00,,---,0.00,VWS V14.01,2013-01-30 16:16:00,
2013-01-30 11:21:00,80.9,65.7,30.00,SSW,206,3.0,10.0,60,0.00,,---,0.00,VWS V14.01,2013-01-30 16:21:00,
2013-01-30 11:26:00,80.1,66.4,30.00,ESE,115,2.0,12.0,63,0.00,,---,0.00,VWS V14.01,2013-01-30 16:26:00,
2013-01-30 11:32:00,80.3,66.6,30.00,South,169,3.0,12.0,63,0.00,,---,0.00,VWS V14.01,2013-01-30 16:32:00,
2013-01-30 11:37:00,80.3,66.6,30.00,SSE,168,5.0,5.0,63,0.00,,---,0.00,VWS V14.01,2013-01-30 16:37:00,
2013-01-30 11:42:00,81.1,66.9,30.00,ESE,123,1.0,5.0,62,0.00,,---,0.00,VWS V14.01,2013-01-30 16:42:00,
2013-01-30 11:47:00,81.2,66.0,29.99,SE,141,3.0,11.0,60,0.00,,---,0.00,VWS V14.01,2013-01-30 16:47:00,
2013-01-30 11:52:00,81.4,66.7,29.99,SSE,152,3.0,11.0,61,0.00,,---,0.00,VWS V14.01,2013-01-30 16:52:00,
2013-01-30 11:57:00,81.6,66.4,29.99,SE,141,3.0,11.0,60,0.00,,---,0.00,VWS V14.01,2013-01-30 16:57:00,
2013-01-30 12:02:00,82.6,67.3,29.97,South,186,5.0,5.0,60,0.00,,---,0.00,VWS V14.01,2013-01-30 17:02:00,
2013-01-30 12:07:00,83.0,67.7,29.97,SE,131,2.0,5.0,60,0.00,,---,0.00,VWS V14.01,2013-01-30 17:07:00,
2013-01-30 12:12:00,83.2,66.4,29.97,SE,130,2.0,11.0,57,0.00,,---,0.00,VWS V14.01,2013-01-30 17:12:00,
2013-01-30 12:17:00,82.2,66.0,29.96,ESE,113,10.0,11.0,58,0.00,,---,0.00,VWS V14.01,2013-01-30 17:17:00,
2013-01-30 12:22:00,83.2,66.4,29.96,SE,142,2.0,11.0,57,0.00,,---,0.00,VWS V14.01,2013-01-30 17:22:00,
2013-01-30 12:27:00,83.4,66.6,29.96,ESE,122,4.0,13.0,57,0.00,,---,0.00,VWS V14.01,2013-01-30 17:27:00,
2013-01-30 12:33:00,83.8,67.0,29.94,SE,129,2.0,5.0,57,0.00,,---,0.00,VWS V14.01,2013-01-30 17:33:00,
2013-01-30 12:38:00,82.4,66.7,29.94,SE,131,4.0,11.0,59,0.00,,---,0.00,VWS V14.01,2013-01-30 17:38:00,
2013-01-30 12:43:00,83.2,66.9,29.94,SSE,150,2.0,11.0,58,0.00,,---,0.00,VWS V14.01,2013-01-30 17:43:00,
2013-01-30 12:48:00,82.4,67.6,29.93,SSE,154,2.0,12.0,61,0.00,,---,0.00,VWS V14.01,2013-01-30 17:48:00,
2013-01-30 12:53:00,82.2,68.4,29.93,South,173,5.0,12.0,63,0.00,,---,0.00,VWS V14.01,2013-01-30 17:53:00,
2013-01-30 12:58:00,81.4,67.1,29.93,SE,132,2.0,12.0,62,0.00,,---,0.00,VWS V14.01,2013-01-30 17:58:00,
2013-01-30 13:03:00,80.9,66.7,29.93,SE,124,0.0,7.0,62,0.00,,---,0.00,VWS V14.01,2013-01-30 18:03:00,
2013-01-30 13:08:00,82.6,67.8,29.93,SE,144,3.0,7.0,61,0.00,,---,0.00,VWS V14.01,2013-01-30 18:08:00,
2013-01-30 13:13:00,82.8,66.5,29.93,SE,130,7.0,7.0,58,0.00,,---,0.00,VWS V14.01,2013-01-30 18:13:00,
2013-01-30 13:18:00,82.2,67.4,29.92,SSE,151,1.0,7.0,61,0.00,,---,0.00,VWS V14.01,2013-01-30 18:18:00,
2013-01-30 13:23:00,82.2,66.9,29.92,SE,125,3.0,10.0,60,0.00,,---,0.00,VWS V14.01,2013-01-30 18:23:00,
2013-01-30 13:28:00,83.6,67.8,29.92,ESE,121,2.0,10.0,59,0.00,,---,0.00,VWS V14.01,2013-01-30 18:28:00,
2013-01-30 13:33:00,84.0,67.1,29.91,South,174,6.0,8.0,57,0.00,,---,0.00,VWS V14.01,2013-01-30 18:33:00,
2013-01-30 13:39:00,84.3,68.4,29.91,ESE,121,1.0,8.0,59,0.00,,---,0.00,VWS V14.01,2013-01-30 18:39:00,
2013-01-30 13:44:00,84.3,66.9,29.91,SE,134,3.0,9.0,56,0.00,,---,0.00,VWS V14.01,2013-01-30 18:44:00,
2013-01-30 13:49:00,83.6,67.3,29.91,SE,144,2.0,16.0,58,0.00,,---,0.00,VWS V14.01,2013-01-30 18:49:00,
2013-01-30 13:54:00,83.0,67.7,29.91,SE,128,2.0,16.0,60,0.00,,---,0.00,VWS V14.01,2013-01-30 18:54:00,
2013-01-30 13:59:00,84.1,68.2,29.91,ESE,119,4.0,16.0,59,0.00,,---,0.00,VWS V14.01,2013-01-30 18:59:00,
2013-01-30 14:04:00,84.0,68.1,29.91,SSE,150,4.0,12.0,59,0.00,,---,0.00,VWS V14.01,2013-01-30 19:04:00,
2013-01-30 14:09:00,84.9,68.0,29.91,ESE,113,3.0,12.0,57,0.00,,---,0.00,VWS V14.01,2013-01-30 19:09:00,
2013-01-30 14:14:00,83.4,66.6,29.91,South,189,3.0,12.0,57,0.00,,---,0.00,VWS V14.01,2013-01-30 19:14:00,
2013-01-30 14:19:00,83.4,67.6,29.91,SE,128,3.0,12.0,59,0.00,,---,0.00,VWS V14.01,2013-01-30 19:19:00,
2013-01-30 14:24:00,83.8,67.5,29.91,SSE,157,5.0,12.0,58,0.00,,---,0.00,VWS V14.01,2013-01-30 19:24:00,
2013-01-30 14:29:00,82.4,66.7,29.91,ESE,107,11.0,12.0,59,0.00,,---,0.00,VWS V14.01,2013-01-30 19:29:00,
2013-01-30 14:34:00,82.2,67.4,29.91,SE,133,2.0,5.0,61,0.00,,---,0.00,VWS V14.01,2013-01-30 19:34:00,
2013-01-30 14:39:00,82.8,67.5,29.91,South,176,3.0,6.0,60,0.00,,---,0.00,VWS V14.01,2013-01-30 19:39:00,
2013-01-30 14:44:00,82.4,67.1,29.91,ESE,122,4.0,6.0,60,0.00,,---,0.00,VWS V14.01,2013-01-30 19:44:00,
2013-01-30 14:50:00,82.6,68.3,29.91,SSE,160,3.0,6.0,62,0.00,,---,0.00,VWS V14.01,2013-01-30 19:50:00,
2013-01-30 14:55:00,82.8,67.5,29.91,SSE,150,2.0,7.0,60,0.00,,---,0.00,VWS V14.01,2013-01-30 19:55:00,
2013-01-30 15:00:00,82.2,66.5,29.91,SSW,209,5.0,7.0,59,0.00,,---,0.00,VWS V14.01,2013-01-30 20:00:00,
2013-01-30 15:05:00,81.1,66.4,29.92,SSW,192,6.0,9.0,61,0.00,,---,0.00,VWS V14.01,2013-01-30 20:05:00,
2013-01-30 15:10:00,79.8,66.1,29.92,SSW,207,6.0,14.0,63,0.00,,---,0.00,VWS V14.01,2013-01-30 20:10:00,
2013-01-30 15:15:00,79.8,67.0,29.92,South,183,1.0,14.0,65,0.00,,---,0.00,VWS V14.01,2013-01-30 20:15:00,
2013-01-30 15:20:00,79.9,66.7,29.93,SSE,163,2.0,14.0,64,0.00,,---,0.00,VWS V14.01,2013-01-30 20:20:00,
2013-01-30 15:25:00,81.1,67.3,29.93,South,169,1.0,14.0,63,0.00,,---,0.00,VWS V14.01,2013-01-30 20:25:00,
2013-01-30 15:30:00,81.6,67.3,29.93,SSW,213,2.0,14.0,62,0.00,,---,0.00,VWS V14.01,2013-01-30 20:30:00,
2013-01-30 15:35:00,83.2,67.9,29.92,South,170,3.0,4.0,60,0.00,,---,0.00,VWS V14.01,2013-01-30 20:35:00,
2013-01-30 15:40:00,82.8,67.5,29.92,South,174,4.0,7.0,60,0.00,,---,0.00,VWS V14.01,2013-01-30 20:40:00,
2013-01-30 15:45:00,81.1,66.9,29.92,South,189,2.0,9.0,62,0.00,,---,0.00,VWS V14.01,2013-01-30 20:45:00,
2013-01-30 15:50:00,80.7,67.4,29.93,SSW,195,1.0,9.0,64,0.00,,---,0.00,VWS V14.01,2013-01-30 20:50:00,
2013-01-30 15:55:00,81.1,66.9,29.93,South,181,2.0,9.0,62,0.00,,---,0.00,VWS V14.01,2013-01-30 20:55:00,
2013-01-30 16:00:00,80.7,66.5,29.93,SSW,194,0.0,9.0,62,0.00,,---,0.00,VWS V14.01,2013-01-30 21:00:00,
2013-01-30 16:05:00,80.1,66.8,29.94,SSW,208,0.0,5.0,64,0.00,,---,0.00,VWS V14.01,2013-01-30 21:05:00,
2013-01-30 16:10:00,79.6,67.2,29.94,SSW,198,2.0,5.0,66,0.00,,---,0.00,VWS V14.01,2013-01-30 21:10:00,
2013-01-30 16:15:00,79.6,67.2,29.94,SSW,192,3.0,11.0,66,0.00,,---,0.00,VWS V14.01,2013-01-30 21:15:00,
2013-01-30 16:21:00,79.9,67.1,29.94,SSW,198,0.0,11.0,65,0.00,,---,0.00,VWS V14.01,2013-01-30 21:21:00,
2013-01-30 16:26:00,79.6,66.8,29.94,SSW,201,3.0,11.0,65,0.00,,---,0.00,VWS V14.01,2013-01-30 21:26:00,
2013-01-30 16:31:00,80.1,67.3,29.94,SW,221,9.0,11.0,65,0.00,,---,0.00,VWS V14.01,2013-01-30 21:31:00,
2013-01-30 16:36:00,79.6,66.8,29.94,South,186,3.0,5.0,65,0.00,,---,0.00,VWS V14.01,2013-01-30 21:36:00,
2013-01-30 16:41:00,78.6,66.3,29.94,SW,227,2.0,8.0,66,0.00,,---,0.00,VWS V14.01,2013-01-30 21:41:00,
2013-01-30 16:46:00,78.5,66.6,29.95,SW,214,4.0,8.0,67,0.00,,---,0.00,VWS V14.01,2013-01-30 21:46:00,
2013-01-30 16:51:00,79.0,66.7,29.95,SSW,201,2.0,8.0,66,0.00,,---,0.00,VWS V14.01,2013-01-30 21:51:00,
2013-01-30 16:56:00,79.2,66.9,29.95,SSW,200,2.0,8.0,66,0.00,,---,0.00,VWS V14.01,2013-01-30 21:56:00,
2013-01-30 17:01:00,78.6,66.3,29.94,South,188,0.0,8.0,66,0.00,,---,0.00,VWS V14.01,2013-01-30 22:01:00,
2013-01-30 17:06:00,78.5,66.6,29.94,South,188,0.0,1.0,67,0.00,,---,0.00,VWS V14.01,2013-01-30 22:06:00,
2013-01-30 17:11:00,78.3,66.4,29.94,South,188,1.0,3.0,67,0.00,,---,0.00,VWS V14.01,2013-01-30 22:11:00,
2013-01-30 17:16:00,77.9,66.5,29.94,South,188,2.0,5.0,68,0.00,,---,0.00,VWS V14.01,2013-01-30 22:16:00,
2013-01-30 17:21:00,78.6,66.3,29.94,South,184,1.0,5.0,66,0.00,,---,0.00,VWS V14.01,2013-01-30 22:21:00,
2013-01-30 17:26:00,78.6,66.7,29.94,South,186,0.0,5.0,67,0.00,,---,0.00,VWS V14.01,2013-01-30 22:26:00,
2013-01-30 17:31:00,78.3,66.0,29.93,South,170,1.0,5.0,66,0.00,,---,0.00,VWS V14.01,2013-01-30 22:31:00,
2013-01-30 17:36:00,77.9,66.1,29.93,South,171,0.0,3.0,67,0.00,,---,0.00,VWS V14.01,2013-01-30 22:36:00,
2013-01-30 17:41:00,77.7,65.9,29.93,South,169,3.0,5.0,67,0.00,,---,0.00,VWS V14.01,2013-01-30 22:41:00,
2013-01-30 17:46:00,77.4,66.0,29.93,South,190,1.0,7.0,68,0.00,,---,0.00,VWS V14.01,2013-01-30 22:46:00,
2013-01-30 17:51:00,77.2,66.2,29.93,SSW,194,0.0,7.0,69,0.00,,---,0.00,VWS V14.01,2013-01-30 22:51:00,
2013-01-30 17:56:00,77.0,66.5,29.93,SSE,153,2.0,7.0,70,0.00,,---,0.00,VWS V14.01,2013-01-30 22:56:00,
2013-01-30 18:01:00,76.7,67.0,29.92,ESE,111,1.0,7.0,72,0.00,,---,0.00,VWS V14.01,2013-01-30 23:01:00,
2013-01-30 18:07:00,76.5,67.2,29.92,ESE,112,2.0,2.0,73,0.00,,---,0.00,VWS V14.01,2013-01-30 23:07:00,
2013-01-30 18:12:00,76.1,67.2,29.92,ESE,113,0.0,2.0,74,0.00,,---,0.00,VWS V14.01,2013-01-30 23:12:00,
2013-01-30 18:17:00,76.0,67.5,29.92,SSE,150,2.0,3.0,75,0.00,,---,0.00,VWS V14.01,2013-01-30 23:17:00,
2013-01-30 18:22:00,76.0,67.5,29.92,SE,132,0.0,3.0,75,0.00,,---,0.00,VWS V14.01,2013-01-30 23:22:00,
2013-01-30 18:27:00,75.8,67.3,29.92,SSE,151,2.0,3.0,75,0.00,,---,0.00,VWS V14.01,2013-01-30 23:27:00,
2013-01-30 18:32:00,75.6,67.5,29.92,SSE,154,1.0,4.0,76,0.00,,---,0.00,VWS V14.01,2013-01-30 23:32:00,
2013-01-30 18:37:00,75.4,67.7,29.92,SSE,155,0.0,2.0,77,0.00,,---,0.00,VWS V14.01,2013-01-30 23:37:00,
2013-01-30 18:42:00,75.1,67.4,29.92,SSE,155,0.0,2.0,77,0.00,,---,0.00,VWS V14.01,2013-01-30 23:42:00,
2013-01-30 18:47:00,75.1,67.8,29.92,SSE,155,0.0,2.0,78,0.00,,---,0.00,VWS V14.01,2013-01-30 23:47:00,
2013-01-30 18:52:00,74.9,67.9,29.92,SSE,155,1.0,2.0,79,0.00,,---,0.00,VWS V14.01,2013-01-30 23:52:00,
2013-01-30 18:57:00,74.7,67.8,29.92,SSE,155,0.0,2.0,79,0.00,,---,0.00,VWS V14.01,2013-01-30 23:57:00,
2013-01-30 19:02:00,74.6,68.0,29.93,SSE,155,0.0,0.0,80,0.00,,---,0.00,VWS V14.01,2013-01-31 00:02:00,
2013-01-30 19:07:00,74.2,68.0,29.93,SSE,155,0.0,0.0,81,0.00,,---,0.00,VWS V14.01,2013-01-31 00:07:00,
2013-01-30 19:12:00,74.0,68.2,29.93,SSE,155,0.0,2.0,82,0.00,,---,0.00,VWS V14.01,2013-01-31 00:12:00,
2013-01-30 19:17:00,74.0,68.5,29.93,SSE,155,0.0,3.0,83,0.00,,---,0.00,VWS V14.01,2013-01-31 00:17:00,
2013-01-30 19:22:00,73.9,68.4,29.93,SSE,155,0.0,3.0,83,0.00,,---,0.00,VWS V14.01,2013-01-31 00:22:00,
2013-01-30 19:27:00,73.5,68.4,29.93,SSE,155,0.0,3.0,84,0.00,,---,0.00,VWS V14.01,2013-01-31 00:27:00,
2013-01-30 19:32:00,73.3,68.5,29.93,SSE,155,0.0,0.0,85,0.00,,---,0.00,VWS V14.01,2013-01-31 00:32:00,
2013-01-30 19:38:00,73.2,68.4,29.93,SSE,155,0.0,0.0,85,0.00,,---,0.00,VWS V14.01,2013-01-31 00:38:00,
2013-01-30 19:43:00,72.8,68.4,29.93,SSE,155,0.0,0.0,86,0.00,,---,0.00,VWS V14.01,2013-01-31 00:43:00,
2013-01-30 19:48:00,72.8,68.7,29.93,SSE,155,0.0,0.0,87,0.00,,---,0.00,VWS V14.01,2013-01-31 00:48:00,
2013-01-30 19:53:00,72.7,68.9,29.93,SSE,155,0.0,0.0,88,0.00,,---,0.00,VWS V14.01,2013-01-31 00:53:00,
2013-01-30 19:58:00,72.7,68.9,29.93,SSE,155,0.0,3.0,88,0.00,,---,0.00,VWS V14.01,2013-01-31 00:58:00,
2013-01-30 20:03:00,72.7,68.9,29.93,SSE,155,0.0,0.0,88,0.00,,---,0.00,VWS V14.01,2013-01-31 01:03:00,
2013-01-30 20:08:00,72.5,69.1,29.93,SSE,155,0.0,0.0,89,0.00,,---,0.00,VWS V14.01,2013-01-31 01:08:00,
2013-01-30 20:13:00,72.5,69.1,29.93,SSE,155,0.0,0.0,89,0.00,,---,0.00,VWS V14.01,2013-01-31 01:13:00,
2013-01-30 20:18:00,72.5,69.1,29.93,SSE,155,0.0,0.0,89,0.00,,---,0.00,VWS V14.01,2013-01-31 01:18:00,
2013-01-30 20:23:00,72.3,69.2,29.93,SSE,155,0.0,0.0,90,0.00,,---,0.00,VWS V14.01,2013-01-31 01:23:00,
2013-01-30 20:28:00,72.3,69.2,29.93,SSE,155,0.0,0.0,90,0.00,,---,0.00,VWS V14.01,2013-01-31 01:28:00,
2013-01-30 20:33:00,72.1,69.3,29.93,SSE,155,0.0,0.0,91,0.00,,---,0.00,VWS V14.01,2013-01-31 01:33:00,
2013-01-30 20:38:00,72.0,69.2,29.93,SSE,155,0.0,0.0,91,0.00,,---,0.00,VWS V14.01,2013-01-31 01:38:00,
2013-01-30 20:43:00,72.0,69.6,29.93,SSE,155,3.0,3.0,92,0.00,,---,0.00,VWS V14.01,2013-01-31 01:43:00,
2013-01-30 20:48:00,72.0,69.6,29.93,SSE,155,0.0,3.0,92,0.00,,---,0.00,VWS V14.01,2013-01-31 01:48:00,
2013-01-30 20:53:00,72.0,69.6,29.93,SSE,155,0.0,3.0,92,0.00,,---,0.00,VWS V14.01,2013-01-31 01:53:00,
2013-01-30 20:58:00,72.0,69.6,29.93,SSE,155,0.0,3.0,92,0.00,,---,0.00,VWS V14.01,2013-01-31 01:58:00,
2013-01-30 21:03:00,72.0,69.6,29.94,SSE,155,0.0,0.0,92,0.00,,---,0.00,VWS V14.01,2013-01-31 02:03:00,
2013-01-30 21:08:00,72.0,69.6,29.94,SSE,155,0.0,0.0,92,0.00,,---,0.00,VWS V14.01,2013-01-31 02:08:00,
2013-01-30 21:14:00,71.8,69.7,29.94,SSE,155,0.0,3.0,93,0.00,,---,0.00,VWS V14.01,2013-01-31 02:14:00,
2013-01-30 21:19:00,71.8,69.7,29.94,SSE,155,0.0,3.0,93,0.00,,---,0.00,VWS V14.01,2013-01-31 02:19:00,
2013-01-30 21:24:00,71.6,69.8,29.94,SSE,155,0.0,3.0,94,0.00,,---,0.00,VWS V14.01,2013-01-31 02:24:00,
2013-01-30 21:29:00,71.6,69.5,29.94,SSE,155,0.0,3.0,93,0.00,,---,0.00,VWS V14.01,2013-01-31 02:29:00,
2013-01-30 21:34:00,71.5,69.7,29.94,SSE,155,0.0,1.0,94,0.00,,---,0.00,VWS V14.01,2013-01-31 02:34:00,
2013-01-30 21:39:00,71.6,69.8,29.94,SSE,155,0.0,1.0,94,0.00,,---,0.00,VWS V14.01,2013-01-31 02:39:00,
2013-01-30 21:44:00,71.6,70.1,29.94,SSE,155,0.0,1.0,95,0.00,,---,0.00,VWS V14.01,2013-01-31 02:44:00,
2013-01-30 21:49:00,71.5,69.7,29.94,SSE,155,0.0,1.0,94,0.00,,---,0.00,VWS V14.01,2013-01-31 02:49:00,
2013-01-30 21:54:00,71.5,70.0,29.94,SSE,155,0.0,1.0,95,0.00,,---,0.00,VWS V14.01,2013-01-31 02:54:00,
2013-01-30 21:59:00,71.5,70.0,29.94,SSE,155,0.0,1.0,95,0.00,,---,0.00,VWS V14.01,2013-01-31 02:59:00,
2013-01-30 22:04:00,71.5,70.0,29.94,SSE,155,0.0,0.0,95,0.00,,---,0.00,VWS V14.01,2013-01-31 03:04:00,
2013-01-30 22:09:00,71.5,70.0,29.94,SSE,155,1.0,1.0,95,0.00,,---,0.00,VWS V14.01,2013-01-31 03:09:00,
2013-01-30 22:14:00,71.5,70.0,29.94,SSE,155,0.0,1.0,95,0.00,,---,0.00,VWS V14.01,2013-01-31 03:14:00,
2013-01-30 22:19:00,71.5,70.3,29.94,SSE,155,3.0,3.0,96,0.00,,---,0.00,VWS V14.01,2013-01-31 03:19:00,
2013-01-30 22:24:00,71.5,70.0,29.94,SSE,155,0.0,3.0,95,0.00,,---,0.00,VWS V14.01,2013-01-31 03:24:00,
2013-01-30 22:29:00,71.3,69.8,29.94,SSE,155,0.0,3.0,95,0.00,,---,0.00,VWS V14.01,2013-01-31 03:29:00,
2013-01-30 22:34:00,71.3,70.1,29.94,SSE,155,0.0,1.0,96,0.00,,---,0.00,VWS V14.01,2013-01-31 03:34:00,
2013-01-30 22:39:00,71.5,70.3,29.94,SSE,155,0.0,2.0,96,0.00,,---,0.00,VWS V14.01,2013-01-31 03:39:00,
2013-01-30 22:44:00,71.5,70.3,29.94,SSE,155,0.0,3.0,96,0.00,,---,0.00,VWS V14.01,2013-01-31 03:44:00,
2013-01-30 22:49:00,71.3,70.1,29.94,SSE,155,0.0,3.0,96,0.00,,---,0.00,VWS V14.01,2013-01-31 03:49:00,
2013-01-30 22:55:00,71.3,70.1,29.94,SSE,155,0.0,3.0,96,0.00,,---,0.00,VWS V14.01,2013-01-31 03:55:00,
2013-01-30 23:00:00,71.3,70.1,29.94,SSE,155,0.0,3.0,96,0.00,,---,0.00,VWS V14.01,2013-01-31 04:00:00,
2013-01-30 23:05:00,71.3,70.1,29.94,SSE,155,1.0,1.0,96,0.00,,---,0.00,VWS V14.01,2013-01-31 04:05:00,
2013-01-30 23:10:00,71.3,70.1,29.94,SSE,155,0.0,1.0,96,0.00,,---,0.00,VWS V14.01,2013-01-31 04:10:00,
2013-01-30 23:15:00,71.3,70.1,29.94,SSE,155,0.0,1.0,96,0.00,,---,0.00,VWS V14.01,2013-01-31 04:15:00,
2013-01-30 23:20:00,71.3,70.1,29.93,SSE,155,1.0,1.0,96,0.00,,---,0.00,VWS V14.01,2013-01-31 04:20:00,
2013-01-30 23:25:00,71.1,69.9,29.93,SSE,155,0.0,2.0,96,0.00,,---,0.00,VWS V14.01,2013-01-31 04:25:00,
2013-01-30 23:30:00,71.1,69.9,29.93,SSE,155,0.0,2.0,96,0.00,,---,0.00,VWS V14.01,2013-01-31 04:30:00,
2013-01-30 23:35:00,71.1,70.2,29.93,SSE,155,0.0,0.0,97,0.00,,---,0.00,VWS V14.01,2013-01-31 04:35:00,
2013-01-30 23:40:00,71.1,70.2,29.93,SSE,155,0.0,2.0,97,0.00,,---,0.00,VWS V14.01,2013-01-31 04:40:00,
2013-01-30 23:45:00,71.1,70.2,29.93,SSE,155,0.0,2.0,97,0.00,,---,0.00,VWS V14.01,2013-01-31 04:45:00,
2013-01-30 23:50:00,71.1,70.2,29.93,SSE,155,0.0,3.0,97,0.00,,---,0.00,VWS V14.01,2013-01-31 04:50:00,
2013-01-30 23:55:00,71.1,70.2,29.93,SSE,155,2.0,3.0,97,0.00,,---,0.00,VWS V14.01,2013-01-31 04:55:00,